Observations for Trim Market St
| Time | AQI | Temp °C | Hum % | Pres Pa | CO μg/m³ | H₂S μg/m³ | NO μg/m³ | NO₂ μg/m³ | O₃ μg/m³ | SO₂ μg/m³ | PM1 μg/m³ | PM2.5 μg/m³ | PM10 μg/m³ |
|---|---|---|---|---|---|---|---|---|---|---|---|---|---|
| Wednesday 15 July 2026 | |||||||||||||
| 03:41 | 1 | 17.5 | 75 | 40,686 | 0.15 | 0 | 0 | 6.56 | 21.01 | 0 | 7.84 | 11.47 | 17.12 |
| 03:40 | 1 | 17.5 | 75 | 40,836 | 0.17 | 0 | 0 | 6.86 | 23.5 | 0 | 4.99 | 10.51 | 15.32 |
| 03:39 | 1 | 17.5 | 74 | 41,027 | 0.17 | 0 | 0 | 7.27 | 20.73 | 0 | 7.84 | 9.56 | 15.33 |
| 03:38 | 1 | 17.5 | 74 | 41,278 | 0.15 | 0 | 0 | 5.77 | 27.44 | 0 | 7.84 | 11.96 | 16.53 |
| 03:35 | 1 | 17.6 | 74 | 41,953 | 0.14 | 0 | 0 | 7.76 | 26.11 | 0 | 9.26 | 14.85 | 21.36 |
| 03:34 | 1 | 17.6 | 74 | 42,494 | 0.15 | 0 | 0.62 | 7.38 | 19.49 | 0 | 8.55 | 9.58 | 13.55 |
| 03:30 | 1 | 17.6 | 74 | 44,377 | 0.15 | 0 | 0 | 7.01 | 25.63 | 0 | 7.13 | 12.48 | 19 |
| 03:29 | 1 | 17.6 | 74 | 44,747 | 0.15 | 0 | 0 | 6.51 | 22.44 | 0 | 7.13 | 10.08 | 15.38 |
| 03:21 | 1 | 17.6 | 73 | 47,841 | 0.15 | 0 | 0 | 7.89 | 23.15 | 0 | 7.84 | 11.09 | 16.04 |
| 03:20 | 1 | 17.6 | 73 | 48,248 | 0.13 | 0 | 0 | 5.9 | 23.05 | 0 | 7.84 | 11.58 | 17.87 |
| 03:19 | 1 | 17.6 | 73 | 48,596 | 0.13 | 0 | 0 | 6.7 | 22.3 | 0 | 9.26 | 12.06 | 17.26 |
| 03:18 | 1 | 17.6 | 73 | 49,054 | 0.14 | 0 | 0 | 7.21 | 25.5 | 0 | 7.13 | 11.1 | 17.88 |
| 03:17 | 1 | 17.6 | 73 | 49,391 | 0.13 | 0 | 0 | 6.72 | 23.61 | 0 | 7.13 | 11.59 | 17.89 |
| 03:16 | 1 | 17.6 | 73 | 49,799 | 0.13 | 0 | 0 | 6.52 | 22.49 | 0 | 7.84 | 12.07 | 17.28 |
| 03:15 | 1 | 17.6 | 73 | 50,117 | 0.13 | 0 | 0 | 6.83 | 23.07 | 0 | 7.13 | 12.08 | 17.29 |
| 03:14 | 1 | 17.6 | 73 | 50,459 | 0.14 | 0 | 0 | 5.75 | 21.87 | 0 | 4.99 | 9.2 | 13.03 |
| 03:10 | 1 | 17.6 | 72 | 51,419 | 0.14 | 0 | 0 | 6.67 | 21.87 | 0 | 9.26 | 11.62 | 19.16 |
| 03:09 | 1 | 17.6 | 72 | 51,610 | 0.13 | 0 | 0 | 5.38 | 21.58 | 0 | 7.13 | 10.18 | 15.49 |
| 03:05 | 1 | 17.7 | 72 | 52,059 | 0.13 | 0 | 0 | 6.28 | 23.12 | 0 | 6.41 | 10.68 | 16.12 |
| 03:03 | 1 | 17.7 | 72 | 52,401 | 0.14 | 0 | 0 | 6 | 21.83 | 0 | 5.7 | 9.72 | 14.91 |